Time,TemperatureF,DewpointF,PressureIn,WindDirection,WindDirectionDegrees,WindSpeedMPH,WindSpeedGustMPH,Humidity,HourlyPrecipIn,Conditions,Clouds,dailyrainin,SoftwareType,DateUTC
2013-01-17 16:03:00,0.0,28.9,29.98,NNE,15,0.0,0.0,0,0.00,,,0.72,VWS V14.01,2013-01-17 21:03:00,
2013-01-17 16:08:00,41.6,28.4,29.99,NNW,335,2.0,7.0,59,0.02,,,0.00,VWS V14.01,2013-01-17 21:08:00,
2013-01-17 16:13:00,41.6,28.8,29.99,North,8,3.0,7.0,60,0.02,,,0.00,VWS V14.01,2013-01-17 21:13:00,
2013-01-17 16:18:00,41.6,28.4,29.98,NNE,21,0.0,8.0,59,0.02,,,0.00,VWS V14.01,2013-01-17 21:18:00,
2013-01-17 16:23:00,41.5,28.7,29.99,NNE,19,4.0,8.0,60,0.02,,,0.00,VWS V14.01,2013-01-17 21:23:00,
2013-01-17 16:28:00,41.5,28.7,29.98,North,2,0.0,8.0,60,0.02,,,0.00,VWS V14.01,2013-01-17 21:28:00,
2013-01-17 16:33:00,41.5,29.1,29.99,NNE,14,4.0,5.0,61,0.00,,,0.00,VWS V14.01,2013-01-17 21:33:00,
2013-01-17 16:38:00,41.4,29.0,29.99,North,11,0.0,6.0,61,0.00,,,0.00,VWS V14.01,2013-01-17 21:38:00,
2013-01-17 16:43:00,41.3,28.9,30.00,North,0,4.0,6.0,61,0.00,,,0.00,VWS V14.01,2013-01-17 21:43:00,
2013-01-17 16:48:00,41.0,28.7,30.00,North,0,0.0,6.0,61,0.00,,,0.00,VWS V14.01,2013-01-17 21:48:00,
2013-01-17 16:53:00,41.0,28.6,29.99,NNE,31,4.0,6.0,61,0.00,,,0.00,VWS V14.01,2013-01-17 21:53:00,
2013-01-17 16:58:00,41.0,29.0,30.00,NNE,30,6.0,8.0,62,0.00,,,0.00,VWS V14.01,2013-01-17 21:58:00,
2013-01-17 17:03:00,41.0,29.0,30.00,NNE,25,1.0,3.0,62,0.00,,OVC200,0.00,VWS V14.01,2013-01-17 22:03:00,
2013-01-17 17:08:00,41.0,29.4,30.00,NNE,25,0.0,3.0,63,0.00,,OVC200,0.00,VWS V14.01,2013-01-17 22:08:00,
2013-01-17 17:13:00,41.0,29.0,30.01,NNE,25,0.0,3.0,62,0.00,,OVC200,0.00,VWS V14.01,2013-01-17 22:13:00,
2013-01-17 17:18:00,40.9,28.9,30.01,NNE,25,0.0,3.0,62,0.00,,OVC200,0.00,VWS V14.01,2013-01-17 22:18:00,
2013-01-17 17:23:00,40.8,28.4,30.01,NNE,25,3.0,4.0,61,0.00,,OVC200,0.00,VWS V14.01,2013-01-17 22:23:00,
2013-01-17 17:28:00,40.8,28.4,30.01,North,6,2.0,6.0,61,0.00,,OVC200,0.00,VWS V14.01,2013-01-17 22:28:00,
2013-01-17 17:33:00,40.8,28.0,30.02,North,6,1.0,1.0,60,0.00,,OVC200,0.00,VWS V14.01,2013-01-17 22:33:00,
2013-01-17 17:38:00,40.7,28.3,30.02,NNE,12,2.0,5.0,61,0.00,,OVC200,0.00,VWS V14.01,2013-01-17 22:38:00,
2013-01-17 17:43:00,40.6,27.8,30.00,NNE,13,3.0,5.0,60,0.00,,OVC200,0.00,VWS V14.01,2013-01-17 22:43:00,
2013-01-17 17:48:00,40.6,28.2,29.99,NNE,15,4.0,5.0,61,0.00,,OVC200,0.00,VWS V14.01,2013-01-17 22:48:00,
2013-01-17 17:53:00,40.7,28.3,29.99,NNE,17,2.0,6.0,61,0.00,,OVC200,0.00,VWS V14.01,2013-01-17 22:53:00,
2013-01-17 17:58:00,40.7,28.3,29.99,NNE,17,0.0,6.0,61,0.00,,OVC200,0.00,VWS V14.01,2013-01-17 22:58:00,
2013-01-17 18:03:00,40.6,28.2,30.00,NNE,15,3.0,7.0,61,0.00,,OVC100,0.00,VWS V14.01,2013-01-17 23:03:00,
2013-01-17 18:08:00,40.6,28.2,30.01,NNE,22,4.0,7.0,62,0.00,,OVC100,0.00,VWS V14.01,2013-01-17 23:08:00,
2013-01-17 18:13:00,40.5,28.1,30.02,NNE,13,0.0,7.0,61,0.00,,OVC100,0.00,VWS V14.01,2013-01-17 23:13:00,
2013-01-17 18:18:00,40.5,28.5,30.02,NNE,22,0.0,7.0,62,0.00,,OVC100,0.00,VWS V14.01,2013-01-17 23:18:00,
2013-01-17 18:23:00,40.5,28.5,30.01,NNE,21,0.0,7.0,62,0.00,,OVC100,0.00,VWS V14.01,2013-01-17 23:23:00,
2013-01-17 18:28:00,40.3,28.3,30.01,NNE,21,0.0,7.0,62,0.00,,OVC100,0.00,VWS V14.01,2013-01-17 23:28:00,
2013-01-17 18:33:00,40.4,28.8,30.01,NNE,21,0.0,3.0,63,0.00,,OVC100,0.00,VWS V14.01,2013-01-17 23:33:00,
2013-01-17 18:38:00,40.3,28.7,30.01,NE,39,4.0,5.0,63,0.00,,OVC100,0.00,VWS V14.01,2013-01-17 23:38:00,
2013-01-17 18:43:00,40.4,28.8,30.00,NNE,23,6.0,7.0,63,0.00,,OVC100,0.00,VWS V14.01,2013-01-17 23:43:00,
2013-01-17 18:48:00,40.2,28.6,30.01,NNE,23,3.0,7.0,63,0.00,,OVC100,0.00,VWS V14.01,2013-01-17 23:48:00,
2013-01-17 18:53:00,40.3,28.3,30.01,NNE,12,3.0,7.0,62,0.00,,OVC100,0.00,VWS V14.01,2013-01-17 23:53:00,
2013-01-17 18:58:00,40.1,28.5,30.01,NNE,12,0.0,7.0,63,0.00,,OVC100,0.00,VWS V14.01,2013-01-17 23:58:00,
2013-01-17 19:03:00,40.2,28.2,30.02,NE,35,1.0,6.0,62,0.00,,OVC120,0.00,VWS V14.01,2013-01-18 00:03:00,
2013-01-17 19:08:00,40.2,28.6,30.00,NNE,14,3.0,6.0,63,0.00,,OVC120,0.00,VWS V14.01,2013-01-18 00:08:00,
2013-01-17 19:13:00,40.2,28.2,30.01,NNE,33,0.0,6.0,62,0.00,,OVC120,0.00,VWS V14.01,2013-01-18 00:13:00,
2013-01-17 19:18:00,40.2,28.6,30.00,NNE,33,0.0,6.0,63,0.00,,OVC120,0.00,VWS V14.01,2013-01-18 00:18:00,
2013-01-17 19:23:00,40.2,28.2,30.00,NNE,21,3.0,6.0,62,0.00,,OVC120,0.00,VWS V14.01,2013-01-18 00:23:00,
2013-01-17 19:28:00,40.1,28.1,30.00,NNE,15,3.0,6.0,62,0.00,,OVC120,0.00,VWS V14.01,2013-01-18 00:28:00,
2013-01-17 19:33:00,40.0,28.0,30.00,NNE,19,3.0,5.0,62,0.00,,OVC120,0.00,VWS V14.01,2013-01-18 00:33:00,
2013-01-17 19:38:00,40.0,28.4,30.00,NNE,19,0.0,5.0,63,0.00,,OVC120,0.00,VWS V14.01,2013-01-18 00:38:00,
2013-01-17 19:43:00,39.9,28.0,30.01,NNE,16,2.0,6.0,62,0.00,,OVC120,0.00,VWS V14.01,2013-01-18 00:43:00,
2013-01-17 19:48:00,39.8,28.2,30.01,NNE,20,4.0,6.0,63,0.00,,OVC120,0.00,VWS V14.01,2013-01-18 00:48:00,
2013-01-17 19:53:00,39.9,28.3,30.01,NNW,337,2.0,6.0,63,0.00,,OVC120,0.00,VWS V14.01,2013-01-18 00:53:00,
2013-01-17 19:58:00,39.8,28.2,30.01,North,11,4.0,6.0,63,0.00,,OVC120,0.00,VWS V14.01,2013-01-18 00:58:00,
2013-01-17 20:03:00,39.8,28.2,30.00,NNE,19,3.0,5.0,63,0.00,,OVC095,0.00,VWS V14.01,2013-01-18 01:03:00,
2013-01-17 20:08:00,39.8,28.2,30.00,NNE,19,0.0,5.0,63,0.00,,OVC095,0.00,VWS V14.01,2013-01-18 01:08:00,
2013-01-17 20:13:00,39.8,28.2,30.00,NNE,19,3.0,5.0,63,0.00,,OVC095,0.00,VWS V14.01,2013-01-18 01:13:00,
2013-01-17 20:18:00,39.7,28.1,30.00,North,4,1.0,5.0,63,0.00,,OVC095,0.00,VWS V14.01,2013-01-18 01:18:00,
2013-01-17 20:23:00,39.7,28.1,30.00,NNE,18,3.0,5.0,63,0.00,,OVC095,0.00,VWS V14.01,2013-01-18 01:23:00,
2013-01-17 20:28:00,39.7,28.5,30.00,NNE,26,3.0,5.0,63,0.00,,OVC095,0.00,VWS V14.01,2013-01-18 01:28:00,
2013-01-17 20:33:00,39.7,28.1,29.99,NNE,15,0.0,6.0,63,0.00,,OVC095,0.00,VWS V14.01,2013-01-18 01:33:00,
2013-01-17 20:38:00,39.6,28.1,30.00,North,11,4.0,6.0,63,0.00,,OVC095,0.00,VWS V14.01,2013-01-18 01:38:00,
2013-01-17 20:43:00,39.5,28.4,29.99,North,0,0.0,6.0,64,0.00,,OVC095,0.00,VWS V14.01,2013-01-18 01:43:00,
2013-01-17 20:48:00,39.5,28.4,29.98,NNE,25,3.0,8.0,64,0.00,,OVC095,0.00,VWS V14.01,2013-01-18 01:48:00,
2013-01-17 20:53:00,39.5,28.4,29.97,North,1,3.0,8.0,64,0.00,,OVC095,0.00,VWS V14.01,2013-01-18 01:53:00,
2013-01-17 20:58:00,39.6,28.4,29.98,NE,42,4.0,8.0,64,0.00,,OVC095,0.00,VWS V14.01,2013-01-18 01:58:00,
2013-01-17 21:03:00,39.4,27.9,29.99,NNE,29,0.0,6.0,63,0.00,,OVC085,0.00,VWS V14.01,2013-01-18 02:03:00,
2013-01-17 21:08:00,39.3,27.8,29.99,NE,35,6.0,9.0,63,0.00,,OVC085,0.00,VWS V14.01,2013-01-18 02:08:00,
2013-01-17 21:13:00,39.2,27.7,29.99,NNE,26,6.0,10.0,63,0.00,,OVC085,0.00,VWS V14.01,2013-01-18 02:13:00,
2013-01-17 21:18:00,39.1,28.0,29.99,NNE,24,3.0,10.0,64,0.00,,OVC085,0.00,VWS V14.01,2013-01-18 02:18:00,
2013-01-17 21:23:00,39.1,28.0,29.99,NNW,335,0.0,10.0,64,0.00,,OVC085,0.00,VWS V14.01,2013-01-18 02:23:00,
2013-01-17 21:28:00,38.9,28.1,29.98,NNE,31,3.0,10.0,65,0.00,,OVC085,0.00,VWS V14.01,2013-01-18 02:28:00,
2013-01-17 21:33:00,39.0,28.6,29.98,NNE,33,3.0,7.0,66,0.00,,OVC085,0.00,VWS V14.01,2013-01-18 02:33:00,
2013-01-17 21:38:00,38.9,28.5,29.98,NNE,25,4.0,7.0,66,0.00,,OVC085,0.00,VWS V14.01,2013-01-18 02:38:00,
2013-01-17 21:43:00,38.9,28.5,29.98,NNE,19,5.0,7.0,66,0.00,,OVC085,0.00,VWS V14.01,2013-01-18 02:43:00,
2013-01-17 21:48:00,38.8,28.4,29.98,NE,50,2.0,7.0,66,0.00,,OVC085,0.00,VWS V14.01,2013-01-18 02:48:00,
2013-01-17 21:53:00,38.6,28.2,29.98,ENE,74,7.0,7.0,66,0.00,,OVC085,0.00,VWS V14.01,2013-01-18 02:53:00,
2013-01-17 21:58:00,38.5,28.1,29.97,NNE,27,0.0,7.0,66,0.00,,OVC085,0.00,VWS V14.01,2013-01-18 02:58:00,
2013-01-17 22:03:00,38.4,28.4,29.96,NNE,14,1.0,7.0,67,0.00,,OVC110,0.00,VWS V14.01,2013-01-18 03:03:00,
2013-01-17 22:08:00,38.3,28.3,29.97,NNE,28,0.0,7.0,67,0.00,,OVC110,0.00,VWS V14.01,2013-01-18 03:08:00,
2013-01-17 22:13:00,38.2,28.6,29.97,NNE,32,2.0,9.0,68,0.00,,OVC110,0.00,VWS V14.01,2013-01-18 03:13:00,
2013-01-17 22:18:00,37.9,28.3,29.95,NE,38,0.0,9.0,68,0.00,,OVC110,0.00,VWS V14.01,2013-01-18 03:18:00,
2013-01-17 22:23:00,37.9,28.3,29.95,ENE,69,0.0,9.0,68,0.00,,OVC110,0.00,VWS V14.01,2013-01-18 03:23:00,
2013-01-17 22:28:00,37.7,27.8,29.94,NNE,24,0.0,9.0,67,0.00,,OVC110,0.00,VWS V14.01,2013-01-18 03:28:00,
2013-01-17 22:33:00,37.7,27.4,29.94,East,101,3.0,5.0,66,0.00,,OVC110,0.00,VWS V14.01,2013-01-18 03:33:00,
2013-01-17 22:38:00,37.5,26.5,29.95,NE,52,0.0,10.0,64,0.00,,OVC110,0.00,VWS V14.01,2013-01-18 03:38:00,
2013-01-17 22:43:00,37.3,26.3,29.96,ENE,63,0.0,10.0,64,0.00,,OVC110,0.00,VWS V14.01,2013-01-18 03:43:00,
2013-01-17 22:48:00,37.0,26.0,29.96,SSW,213,0.0,10.0,64,0.00,,OVC110,0.00,VWS V14.01,2013-01-18 03:48:00,
2013-01-17 22:53:00,36.9,25.9,29.95,NE,50,2.0,10.0,64,0.00,,OVC110,0.00,VWS V14.01,2013-01-18 03:53:00,
2013-01-17 22:58:00,36.9,25.9,29.96,NE,46,0.0,10.0,64,0.00,,OVC110,0.00,VWS V14.01,2013-01-18 03:58:00,
2013-01-17 23:03:00,36.7,25.7,29.97,ENE,67,0.0,2.0,64,0.00,,OVC120,0.00,VWS V14.01,2013-01-18 04:03:00,
2013-01-17 23:08:00,36.7,26.1,29.98,NE,53,0.0,3.0,65,0.00,,OVC120,0.00,VWS V14.01,2013-01-18 04:08:00,
2013-01-17 23:13:00,36.7,26.1,29.99,ENE,77,0.0,5.0,65,0.00,,OVC120,0.00,VWS V14.01,2013-01-18 04:13:00,
2013-01-17 23:18:00,36.8,26.1,29.99,ENE,77,0.0,5.0,65,0.00,,OVC120,0.00,VWS V14.01,2013-01-18 04:18:00,
2013-01-17 23:23:00,36.7,26.1,29.98,ENE,77,0.0,5.0,65,0.00,,OVC120,0.00,VWS V14.01,2013-01-18 04:23:00,
2013-01-17 23:28:00,36.9,26.6,29.98,ENE,77,0.0,5.0,66,0.00,,OVC120,0.00,VWS V14.01,2013-01-18 04:28:00,
2013-01-17 23:33:00,36.9,26.6,29.95,ENE,77,0.0,0.0,66,0.00,,OVC120,0.00,VWS V14.01,2013-01-18 04:33:00,
2013-01-17 23:38:00,36.8,26.5,29.95,East,84,0.0,4.0,66,0.00,,OVC120,0.00,VWS V14.01,2013-01-18 04:38:00,
2013-01-17 23:43:00,36.8,26.5,29.98,East,96,0.0,4.0,66,0.00,,OVC120,0.00,VWS V14.01,2013-01-18 04:43:00,
2013-01-17 23:48:00,36.6,26.0,29.97,East,82,0.0,4.0,65,0.00,,OVC120,0.00,VWS V14.01,2013-01-18 04:48:00,
2013-01-17 23:53:00,36.5,25.9,29.97,SE,125,0.0,4.0,65,0.00,,OVC120,0.00,VWS V14.01,2013-01-18 04:53:00,
2013-01-17 23:58:00,36.3,25.7,29.95,NE,52,3.0,5.0,65,0.00,,OVC120,0.00,VWS V14.01,2013-01-18 04:58:00,